Date_and_time,latitude,longitude,wind_speed,RelWindDirFrom,WindDirFrom,air_pressure,air_temperature,relative_humidity,Temp,platform_speed_wrt_ground,air_pressure_at_mean_sea_level,platform_orientation
2019-07-15 13:20,50.63045,-96.980765,14.2,18.7,192,976.47,23.0,101,24.38,0.0,1001.84,347.4
2019-07-15 13:30,50.6304583333333,-96.9807683333333,15.1,20.3,193,976.87,23.1,101,24.38,0.0,1002.24,347.4
2019-07-15 13:40,50.6304516666667,-96.980765,16.6,23.0,196,976.91,23.3,101,24.39,0.0,1002.28,347.4
2019-07-15 13:50,50.6304533333333,-96.9807683333333,15.1,20.5,202,977.13,23.4,101,24.37,0.0,1002.50,347.4
2019-07-15 14:00,50.6304516666667,-96.9807666666667,13.9,21.0,202,977.06,23.4,100,24.34,0.0,1002.43,360.0
2019-07-15 14:10,50.6304516666667,-96.980765,14.9,20.6,185,976.29,23.4,100,24.32,0.0,1001.64,360.0
2019-07-15 14:20,50.630435,-96.9807633333333,15.8,20.7,184,975.90,23.2,100,24.28,0.0,1001.25,360.0
2019-07-15 14:30,50.6304433333333,-96.9807566666667,11.9,18.1,197,975.64,23.2,100,24.26,0.0,1000.98,360.0
2019-07-15 14:40,50.630435,-96.980755,8.8,12.7,210,975.84,23.3,98,24.23,0.0,1001.19,360.0
2019-07-15 14:50,50.6304383333333,-96.9807583333333,8.6,13.0,221,975.86,23.5,93,24.18,0.0,1001.20,360.0
2019-07-15 15:00,50.630455,-96.9807666666667,9.8,14.5,222,975.67,23.8,87,24.16,0.0,1000.99,90.0
2019-07-15 15:10,50.6304533333333,-96.980765,12.5,19.0,207,975.31,24.3,79,24.02,0.0,1000.60,90.0
2019-07-15 15:20,50.6304516666667,-96.9807633333333,14.3,19.6,210,974.98,24.6,72,24.24,0.0,1000.24,90.0
2019-07-15 19:20,50.6304416666667,-96.9807616666667,8.5,16.1,301,976.92,26.8,51,24.84,0.0,1001.95,136.8
2019-07-15 19:30,50.6304433333333,-96.980765,8.8,14.4,304,977.01,26.9,50,24.49,0.0,1002.05,136.8
2019-07-15 19:40,50.630445,-96.9807683333333,10.3,16.8,281,977.20,27.2,48,23.86,0.0,1002.23,136.8
2019-07-15 19:50,50.6304433333333,-96.9807683333333,9.5,17.3,282,977.40,27.3,47,23.71,0.0,1002.45,136.8
2019-07-15 20:00,50.63045,-96.9807716666667,9.9,15.8,290,977.34,27.2,47,23.92,0.0,1002.41,317.2
2019-07-15 20:10,50.630445,-96.9807733333333,7.8,12.7,293,977.33,27.3,47,24.03,0.0,1002.39,317.2
2019-07-15 20:20,50.630445,-96.9807683333333,7.8,13.5,270,977.36,27.5,46,24.07,0.0,1002.42,317.2
2019-07-15 20:30,50.6304466666667,-96.980765,10.4,16.9,277,977.34,27.6,45,24.66,0.0,1002.40,317.2
2019-07-15 20:40,50.6304533333333,-96.98077,8.5,14.3,281,977.37,27.7,46,24.97,0.0,1002.42,317.2
2019-07-15 20:50,50.6304166666667,-96.980765,7.8,13.0,262,977.58,27.5,47,24.81,0.0,1002.65,317.2
2019-07-15 21:00,50.6304383333333,-96.980775,8.0,14.0,281,977.63,27.5,47,24.33,0.0,1002.70,270.0
2019-07-15 21:10,50.630455,-96.9807616666667,7.8,15.8,286,977.67,27.4,46,24.03,0.0,1002.72,270.0
2019-07-15 21:20,50.6304466666667,-96.980765,11.7,19.6,264,977.69,27.7,45,23.95,0.0,1002.73,270.0
2019-07-15 21:30,50.6304383333333,-96.980765,9.8,16.2,271,977.76,27.8,45,24.12,0.0,1002.78,270.0
2019-07-15 21:40,50.63044,-96.9807616666667,10.9,18.7,260,977.80,27.8,42,24.16,0.0,1002.82,270.0
2019-07-15 21:50,50.6304466666667,-96.9807633333333,10.4,19.3,266,977.75,28.1,40,24.36,0.0,1002.76,270.0
2019-07-15 22:00,50.6304366666667,-96.9807583333333,10.6,16.7,272,977.80,28.1,39,24.64,0.0,1002.82,299.2
2019-07-15 22:10,50.6304416666667,-96.980755,9.4,14.7,264,977.87,28.2,38,24.14,0.0,1002.87,299.2
2019-07-15 22:20,50.6304466666667,-96.98076,9.5,18.2,269,977.82,28.1,40,24.55,0.0,1002.82,299.2
2019-07-15 22:30,50.6304466666667,-96.9807616666667,9.4,15.0,278,977.88,27.3,42,24.45,0.0,1002.91,299.2
2019-07-15 22:40,50.6304483333333,-96.980775,9.2,15.5,264,978.03,27.4,44,24.42,0.0,1003.06,299.2
2019-07-15 22:50,50.6304483333333,-96.980775,9.1,16.1,246,978.18,27.3,48,24.08,0.0,1003.23,299.2
2019-07-15 23:00,50.6304483333333,-96.9807733333333,10.1,15.7,254,978.19,26.8,49,23.72,0.0,1003.26,360.0
2019-07-15 23:10,50.6304666666667,-96.9807733333333,6.7,12.5,263,978.25,26.6,50,23.66,0.0,1003.32,360.0
2019-07-15 23:20,50.6304383333333,-96.9807683333333,5.6,11.9,262,978.28,26.4,50,23.52,0.0,1003.35,360.0
2019-07-15 23:30,50.6304483333333,-96.9807833333333,6.4,12.7,252,978.28,26.3,50,23.44,0.0,1003.37,360.0
2019-07-15 23:40,50.6304516666667,-96.980775,5.2,9.1,266,978.26,26.5,49,23.42,0.0,1003.32,360.0
2019-07-15 23:50,50.6304416666667,-96.9807566666667,9.0,14.3,287,978.15,27.4,43,23.24,0.0,1003.17,360.0
